Regional Weather Roundup
Issued by NWS New Orleans/Baton Rouge, LA

Home | Current Version | Previous Version | Text Only | Print | Product List | Glossary On
Versions: 1 2 3 4 5 6 7 8 9 10 11 12 13 14 15 16 17 18 19 20 21 22 23 24 25 26 27 28 29 30 31 32 33 34 35 36 37 38 39 40 41 42 43 44 45 46 47 48 49 50
841
ASUS44 KLIX 311510
RWRLIX
NEW ORLEANS REGIONAL WEATHER ROUNDUP
NATIONAL WEATHER SERVICE NEW ORLEANS LA
1000 AM CDT FRI OCT 31 2014

NOTE: "FAIR" INDICATES FEW OR NO CLOUDS BELOW 12,000 FEET WITH NO
      SIGNIFICANT WEATHER AND/OR OBSTRUCTIONS TO VISIBILITY.
      SKY/WX - SKY CONDITION AND SIGNIFICANT WEATHER.
      TMP - AIR TEMPERATURE.     DP    - DEWPOINT TEMPERATURE.
      RH  - RELATIVE HUMIDITY.   PRES  - PRESSURE.
      HI  - HEAT INDEX.          WCI   - WIND CHILL INDEX.

*  THESE STATIONS ARE NOT NWS OR FAA STATIONS AND ARE NOT UNDER
   NWS QUALITY CONTROL.

LAZ038-040-048-061>063-065>067-069-311600-
SOUTHEAST LOUISIANA

CITY           SKY/WX    TMP DP  RH WIND       PRES   REMARKS
N.O. AUDUBON     N/A     70  54  57 MISG        N/A
N.O. INTL ARPT MOSUNNY   66  51  58 NW9       30.07S
N.O. LAKEFRONT SUNNY     68  51  54 NW12      30.07S
N.O. DOWNTOWN*   N/A     68  46  45 N7        30.07S
SLIDELL        SUNNY     64  47  53 VRB3      30.05S
BATON ROUGE    SUNNY     64  48  56 NW7       30.08S
BOOTHVILLE     SUNNY     69  48  47 N12       30.07R
BELLE CHASSE   SUNNY     69  49  48 NW3       30.06S
BOGALUSA*        N/A     66  49  54 NW7       30.06F
NEW ROADS*       N/A     62  49  62 N9        30.10S
GONZALES*        N/A     65  49  56 NW6       30.08S
HAMMOND*       SUNNY     66  46  48 NW8       30.08S
HOUMA*         SUNNY     66  48  52 NW6       30.09R
PORT FOURCHON* SUNNY     70  48  46 N9        30.11S

$$

MSZ070-080>082-311600-
SOUTHERN MISSISSIPPI

CITY           SKY/WX    TMP DP  RH WIND       PRES   REMARKS
MCCOMB         SUNNY     62  47  57 N14       30.07R
GULFPORT       SUNNY     64  47  53 W5        30.04S
BILOXI         SUNNY     65  46  48 NW3       30.04S
PASCAGOULA     SUNNY     64  46  52 W3        30.04S
STENNIS ARPT*  SUNNY     63  46  55 CALM      30.06S

$$

COASTAL OBSERVATIONS
LAKE AND NEARSHORE STATIONS

STATION/POSITION TIME  TEMP    WIND        PRES    WAVE
                       AIR SEA DIR/SP/G            HT/PER
                 (UTC) (F)     (DEG/KT/KT) (MB)    (FT/S)
PASCAGOULA       1500   65     330/  4/  5 1016.6
WAVELAND YACHT   1500   63     320/  5/  7 1016.9
GRAND ISLE       1500   68 72  340/  7/  9 1018.8
SOUTHWEST PASS   1500   70 77              1018.4
NEW CANAL        1500   67 69  310/  4/  7 1018.6
SHELL BEACH      1500   66 66  310/  9/  9 1017.8

OFFSHORE STATIONS

STATION/POSITION TIME  TEMP    WIND        PRES    WAVE
                       AIR SEA DIR/SP/G            HT/PER
                 (UTC) (F)     (DEG/KT/KT) (MB)    (FT/S)
64 S DAUPHIN ISL 1428   69 78  350/ 14/ 17 1017.8    3/ 4

$$




USA.gov is the U.S. government's official web portal to all federal, state and local government web resources and services.